Location: Marcé
(47.5801°N, 0.3280°W)
Time: 11:35:13
(UTC+01:00)

deb Explorer IX - Pass Details

Date: 08 December 2021
Orbit: 544 x 1082 km, 38.8° (Epoch: 17 January)

Event Time Altitude Azimuth Distance (km) Brightness Sun altitude
Rises 09:26:23 0° 223° (SW) 3,344 ? 5.7°
Reaches altitude 10° 09:29:40 10° 207° (SSW) 2,299 ? 6.1°
Maximum altitude 09:33:24 19° 162° (SSE) 1,631 ? 6.6°
Drops below altitude 10° 09:36:48 10° 117° (ESE) 2,064 ? 7.0°
Sets 09:39:32 0° 99° (E) 2,891 ? 7.3°
